Beaufort, SC

11:06 PM EST on February 12, 2016 (GMT -0500)
Beaufort Marine Corps Air Station

Weather History for KNBC - June, 2013

Change the Weather History Date:

Monday, June 10, 2013

  Actual Average Record
Temperature  
Mean Temperature 80 °F -  
Max Temperature 89 °F 87 °F 99 °F (1941)
Min Temperature 70 °F 68 °F 60 °F (1960)
Cooling Degree Days 14    
Growing Degree Days 30 (Base 50)    
Moisture  
Dew Point 73 °F    
Average Humidity 80    
Maximum Humidity 93    
Minimum Humidity 65    
Precipitation  
Precipitation 0.77 in - - ()
Sea Level Pressure  
Sea Level Pressure 30.06 in    
Wind  
Wind Speed 6 mph (SSW)    
Max Wind Speed 14 mph    
Max Gust Speed 38 mph    
Visibility 9 miles    
Events Rain , Thunderstorm    
Averages and records for this station are not official NWS values.
T = Trace of Precipitation, MM = Missing Value Source: NWS Daily Summary

Daily Weather History Graph

Daily Weather History Graph

Search for Another Location

Airport or City:

Trip Planner

Search our weather history database for the weather conditions in past years. The results will help you decide how hot, cold, wet, or windy it might be!

Date:

Astronomy

Jun. 10, 2013 Rise Set
Actual Time 6:15 AM EDT 8:29 PM EDT
Civil Twilight 5:46 AM EDT 8:58 PM EDT
Nautical Twilight 5:12 AM EDT 9:32 PM EDT
Astronomical Twilight 4:34 AM EDT 10:10 PM EDT
Moon 7:57 AM EDT (6/10) 10:01 PM EDT (6/10)
Length of Visible Light 15h 11m
Length of Day
14h 14m
Waxing Crescent, 4% of the Moon is Illuminated
Jun 10
Waxing Crescent
Jun 16
First Quarter
Jun 23
Full
Jun 30
Last Quarter
Jul 8
New

Hourly Weather History & Observations

Time (EDT) Temp. Heat Index Dew Point Humidity Pressure Visibility Wind Dir Wind Speed Gust Speed Precip Events Conditions
12:56 AM 79.0 °F - 73.9 °F 84% 30.11 in 10.0 mi South 4.6 mph - N/A   Partly Cloudy
1:56 AM 78.1 °F - 73.0 °F 84% 30.10 in 10.0 mi SSW 6.9 mph - N/A   Partly Cloudy
2:56 AM 78.1 °F - 73.0 °F 84% 30.09 in 10.0 mi South 5.8 mph - N/A   Mostly Cloudy
3:10 AM 78.1 °F - 73.0 °F 84% 30.08 in 10.0 mi South 4.6 mph - N/A   Mostly Cloudy
3:56 AM 78.1 °F - 73.0 °F 84% 30.08 in 10.0 mi South 4.6 mph - N/A   Scattered Clouds
4:56 AM 78.1 °F - 73.0 °F 84% 30.07 in 10.0 mi South 3.5 mph - N/A   Clear
5:56 AM 78.1 °F - 72.0 °F 81% 30.09 in 10.0 mi South 5.8 mph - N/A   Partly Cloudy
6:25 AM 78.1 °F - 72.0 °F 81% 30.09 in 10.0 mi SSW 6.9 mph - N/A   Mostly Cloudy
6:49 AM 78.1 °F - 73.0 °F 84% 30.10 in 10.0 mi SSW 5.8 mph - N/A   Mostly Cloudy
6:56 AM 78.1 °F - 73.0 °F 84% 30.10 in 10.0 mi SSW 6.9 mph - N/A   Mostly Cloudy
7:56 AM 79.0 °F - 73.0 °F 82% 30.09 in 10.0 mi SSW 5.8 mph - N/A   Mostly Cloudy
8:40 AM 81.0 °F 86.2 °F 73.9 °F 79% 30.10 in 10.0 mi SSW 6.9 mph - N/A   Mostly Cloudy
8:56 AM 81.0 °F 86.2 °F 73.9 °F 79% 30.10 in 10.0 mi SSW 6.9 mph - N/A   Mostly Cloudy
9:56 AM 82.0 °F 87.4 °F 73.0 °F 74% 30.10 in 10.0 mi SW 8.1 mph - N/A   Mostly Cloudy
10:26 AM 82.9 °F 88.8 °F 73.0 °F 72% 30.09 in 10.0 mi SSW 10.4 mph 19.6 mph N/A   Mostly Cloudy
10:56 AM 84.0 °F 90.2 °F 73.0 °F 69% 30.09 in 10.0 mi Variable 6.9 mph - N/A   Mostly Cloudy
11:05 AM 84.0 °F 90.2 °F 73.0 °F 69% 30.09 in 10.0 mi WSW 12.7 mph - N/A   Mostly Cloudy
11:15 AM 84.0 °F 89.6 °F 72.0 °F 67% 30.08 in 10.0 mi SW 10.4 mph - N/A   Mostly Cloudy
11:56 AM 86.0 °F 93.0 °F 73.0 °F 65% 30.08 in 10.0 mi SW 10.4 mph - N/A   Mostly Cloudy
12:56 PM 86.0 °F 93.8 °F 73.9 °F 67% 30.06 in 10.0 mi South 8.1 mph - N/A   Mostly Cloudy
1:56 PM 89.1 °F 100.2 °F 75.9 °F 65% 30.04 in 10.0 mi South 6.9 mph - 0.00 in   Mostly Cloudy
2:03 PM 86.0 °F 96.0 °F 75.9 °F 72% 30.04 in 10.0 mi South 8.1 mph - N/A   Mostly Cloudy
2:56 PM 87.1 °F 97.3 °F 75.9 °F 69% 30.03 in 10.0 mi South 6.9 mph - 0.00 in   Mostly Cloudy
3:03 PM 86.0 °F 96.0 °F 75.9 °F 72% 30.03 in 10.0 mi South 5.8 mph - N/A   Overcast
3:36 PM 82.9 °F 90.2 °F 75.0 °F 77% 30.01 in 10.0 mi South 6.9 mph - 0.00 in Rain , Thunderstorm Light Thunderstorms and Rain
3:53 PM 82.4 °F 88.2 °F 73.4 °F 74% 30.01 in 10.0 mi South 8.1 mph - 0.00 in Rain , Thunderstorm Light Thunderstorms and Rain
3:56 PM 82.9 °F 89.4 °F 73.9 °F 74% 30.02 in 10.0 mi South 6.9 mph - 0.00 in Rain , Thunderstorm Light Thunderstorms and Rain
4:33 PM 79.0 °F - 75.9 °F 90% 30.02 in 2.0 mi WSW 9.2 mph - 0.12 in Rain , Thunderstorm Light Thunderstorms and Rain
4:47 PM 77.0 °F - 73.9 °F 90% 30.02 in 4.0 mi SW 9.2 mph 23.0 mph 0.22 in Rain , Thunderstorm Light Thunderstorms and Rain
4:56 PM 75.9 °F - 72.0 °F 87% 30.03 in 4.0 mi West 6.9 mph - 0.23 in Rain , Thunderstorm Light Thunderstorms and Rain
5:31 PM 80.1 °F 85.1 °F 75.0 °F 85% 30.01 in 10.0 mi Variable 3.5 mph - 0.01 in   Mostly Cloudy
5:56 PM 82.0 °F 89.4 °F 75.9 °F 82% 29.98 in 10.0 mi SSW 8.1 mph - 0.01 in   Mostly Cloudy
6:56 PM 80.1 °F 84.2 °F 73.0 °F 79% 29.97 in 10.0 mi South 5.8 mph - N/A   Overcast
7:53 PM 71.6 °F - 66.2 °F 83% 30.06 in 8.0 mi NNW 13.8 mph 38.0 mph 0.01 in Rain , Thunderstorm Thunderstorms and Rain
7:56 PM 72.0 °F - 66.9 °F 84% 30.07 in 8.0 mi WNW 9.2 mph 29.9 mph 0.01 in Rain , Thunderstorm Thunderstorms and Rain
8:18 PM 70.0 °F - 68.0 °F 93% 30.05 in 2.5 mi Calm Calm - 0.41 in Rain , Thunderstorm Thunderstorms and Rain
8:26 PM 71.1 °F - 68.0 °F 90% 30.06 in 3.0 mi SW 6.9 mph - 0.41 in Rain , Thunderstorm Thunderstorms and Rain
8:44 PM 72.0 °F - 68.0 °F 87% 30.05 in 5.0 mi West 5.8 mph - 0.42 in Rain , Thunderstorm Thunderstorms and Rain
8:56 PM 72.0 °F - 69.1 °F 91% 30.06 in 5.0 mi South 5.8 mph - 0.44 in Rain , Thunderstorm Thunderstorms and Rain
9:56 PM 72.0 °F - 69.1 °F 91% 30.06 in 6.0 mi Calm Calm - 0.05 in Rain Rain
10:56 PM 73.0 °F - 70.0 °F 90% 30.06 in 10.0 mi Variable 3.5 mph - 0.03 in   Overcast
11:56 PM 73.0 °F - 70.0 °F 90% 30.06 in 10.0 mi SSW 5.8 mph - N/A   Clear